カタログに戻る

COSMOS 1030 DEB

LostHEO
NORAD 12919·DEBRIS·🇷🇺 Russia

打ち上げ Sep 6, 1978 から Plesetsk Cosmodrome

Loading…

次のパス (今後24時間)

TLE

古いSource: Space-Track

元期: Mar 26, 2026, 15:39 UTC

1 12919U 78083F   26085.65247900  .00000774  00000-0  00000-0 0  9990
2 12919  66.1813 264.0770 6386281 343.6465   2.7129  2.00063366 66931

AllMySatでCOSMOS 1030 DEBをリアルタイム追跡

Download on the App Store